FENGYUN 1C DEB

Satellite information

Favourite Embed

Satellite Type and Status

DEBRISIN ORBIT

Key statistics

Satellite FENGYUN 1C DEB at a glance.

Uptime

9555

Days in orbit

Revolutions

≈ 14.2

Per day

Orbit

SSO

Sun Synchronous Orbit

Inclination

98.6

Latest

Satellite identification and parameters

Extended collection of information and parameters for FENGYUN 1C DEB.

Object identification

Identified? True

Debris? True

Object name: FENGYUN 1C DEB

International designator: 1999-025DJR

Object number (NORAD): 35089

Object ID (CCSDS): 35089

Country: PEOPLES REPUBLIC OF CHINA (PRC)

Current information (Y/N): Y

RCS size: SMALL

Orbital parameters

Period: 101.48 minutes

Inclination: 98.563 deg

SMA: 7206.856 km

Apoapsis: 850.129 km

Periapsis: 807.312 km

RAAN: 200.986 deg

Eccentricy: 0.0029706

Argument of periapsis: 166.0453 deg

Mean anomaly: 194.1551 deg

Mean motion: 14.1900535 rev/day

Mean motion (dot): 0.00001375 rev/day2

B* drag term: 0.00067619 1/REarth

Two-line elements (TLE)

Creation date: July 5, 2025, 6:26 a.m.

Reference frame: TEME

Reference center: EARTH

Epoch: July 4, 2025, 6:23 p.m. UTC

TLE line 0: 0 FENGYUN 1C DEB

TLE line 1: 1 35089U 99025DJR 25185.76641917 .00001375 00000-0 67619-3 0 9990

TLE line 2: 2 35089 98.5630 200.9860 0029706 166.0453 194.1551 14.19005350880068

Live tracking on map

Real-time ground track for satellite FENGYUN 1C DEB.

In-orbit conjunctions

A list of the most updated potential collisions computed for object FENGYUN 1C DEB.

Target Orbit TCA Probability of collision Miss distance Type
CZ-6A DEB LEO 2025-03-03 11:29:20 0.0002888575 531.0 (m) DEBRIS
CZ-6A DEB LEO 2024-12-21 08:13:09 0.0002111052 163.0 (m) DEBRIS
FENGYUN 1C DEB SSO 2024-09-29 08:38:04 0.0001395735 451.0 (m) DEBRIS

Associated space launch

Chinese polar orbiting meteorological satellite

FENGYUN 1C DEB was lifted into orbit during the mission ‘Long March 4B | Feng Yun 1C’, on board a Long March 4B space rocket.

The launch took place on May 10, 1999, 1:33 a.m. from Launch Complex 7.

For more information about the launch, click the button.

Launch to space Long March 4B | Feng Yun 1C
Long March 4B | Feng Yun 1C

Agency: N/A

Status: Launch Successful

Launch date: May 10, 1999, 1:33 a.m. UTC

Rocket: Long March 4B

Launch pad: Launch Complex 7

Location: Taiyuan Satellite Launch Center, People's Republic of China

...

Latest news about this satellite

There are no fresh news available about this satellite. Check back as we update our databases every day.


Newsletter sign-up

Weekly statistics, charts and insights to help you stay on top of the space industry.